| time (UTC) | temp F | wind direction | speed knots | gust knots | rain 1hr in | rain 24hr in | rain mn in | humidity % | barometer mb |
| 20260906225739 | 75 | 161 | 1.7 | 2.6 | 0.00 | 0.00 | 0.00 | 27 | 1017.5 |
| 20260906225236 | 75 | 171 | 0.9 | 1.7 | 0.00 | 0.00 | 0.00 | 25 | 1017.6 |
| 20260906224731 | 76 | 177 | 2.6 | 4.3 | 0.00 | 0.00 | 0.00 | 24 | 1017.5 |
| 20260906224227 | 76 | 214 | 3.5 | 4.3 | 0.00 | 0.00 | 0.00 | 22 | 1017.7 |
| 20260906223723 | 76 | 220 | 5.2 | 6.1 | 0.00 | 0.00 | 0.00 | 23 | 1017.4 |
| 20260906223219 | 77 | 184 | 2.6 | 4.3 | 0.00 | 0.00 | 0.00 | 23 | 1017.7 |
| 20260906222717 | 76 | 198 | 2.6 | 2.6 | 0.00 | 0.00 | 0.00 | 25 | 1017.5 |
| 20260906222216 | 77 | 177 | 1.7 | 2.6 | 0.00 | 0.00 | 0.00 | 23 | 1017.5 |
| 20260906221714 | 77 | 199 | 1.7 | 2.6 | 0.00 | 0.00 | 0.00 | 23 | 1017.6 |
| 20260906221209 | 77 | 174 | 4.3 | 4.3 | 0.00 | 0.00 | 0.00 | 22 | 1017.6 |
| 20260906220704 | 78 | 157 | 0.9 | 4.3 | 0.00 | 0.00 | 0.00 | 23 | 1017.6 |
| 20260906220159 | 77 | 171 | 1.7 | 2.6 | 0.00 | 0.00 | 0.00 | 23 | 1017.6 |
| 20260906215658 | 77 | 189 | 0.9 | 1.7 | 0.00 | 0.00 | 0.00 | 24 | 1017.7 |
| 20260906215157 | 77 | 157 | 1.7 | 1.7 | 0.00 | 0.00 | 0.00 | 25 | 1017.7 |
| 20260906214655 | 76 | 145 | 4.3 | 5.2 | 0.00 | 0.00 | 0.00 | 23 | 1017.5 |
| 20260906214150 | 76 | 136 | 2.6 | 5.2 | 0.00 | 0.00 | 0.00 | 25 | 1017.7 |
| 20260906213650 | 77 | 161 | 0.9 | 6.1 | 0.00 | 0.00 | 0.00 | 23 | 1017.6 |
| 20260906213144 | 77 | 187 | 2.6 | 5.2 | 0.00 | 0.00 | 0.00 | 22 | 1017.8 |
| 20260906212642 | 77 | 171 | 0.9 | 2.6 | 0.00 | 0.00 | 0.00 | 24 | 1017.8 |
| 20260906212137 | 77 | 190 | 2.6 | 5.2 | 0.00 | 0.00 | 0.00 | 22 | 1018.1 |
| 20260906211637 | 76 | 222 | 3.5 | 6.1 | 0.00 | 0.00 | 0.00 | 21 | 1018.0 |
| 20260906211132 | 77 | 216 | 3.5 | 4.3 | 0.00 | 0.00 | 0.00 | 23 | 1018.3 |
| 20260906210628 | 76 | 189 | 0.9 | 2.6 | 0.00 | 0.00 | 0.00 | 24 | 1018.3 |
| 20260906210122 | 77 | 179 | 2.6 | 7.8 | 0.00 | 0.00 | 0.00 | 24 | 1018.4 |
| 20260906205618 | 77 | 176 | 2.6 | 2.6 | 0.00 | 0.00 | 0.00 | 24 | 1018.0 |
| 20260906205114 | 77 | 171 | 1.7 | 4.3 | 0.00 | 0.00 | 0.00 | 24 | 1018.2 |
| 20260906204613 | 76 | 190 | 2.6 | 7.8 | 0.00 | 0.00 | 0.00 | 23 | 1018.4 |
| 20260906204108 | 77 | 212 | 4.3 | 7.8 | 0.00 | 0.00 | 0.00 | 22 | 1018.4 |
| 20260906203608 | 77 | 116 | 4.3 | 7.0 | 0.00 | 0.00 | 0.00 | 23 | 1018.3 |
| 20260906203103 | 77 | 180 | 3.5 | 8.7 | 0.00 | 0.00 | 0.00 | 24 | 1018.6 |
| 20260906202600 | 77 | 192 | 2.6 | 5.2 | 0.00 | 0.00 | 0.00 | 25 | 1018.4 |
| 20260906202100 | 77 | 156 | 4.3 | 8.7 | 0.00 | 0.00 | 0.00 | 23 | 1018.6 |
| 20260906201600 | 77 | 169 | 0.9 | 4.3 | 0.00 | 0.00 | 0.00 | 25 | 1018.4 |
| 20260906201059 | 78 | 214 | 4.3 | 6.1 | 0.00 | 0.00 | 0.00 | 21 | 1018.4 |
| 20260906200555 | 78 | 188 | 4.3 | 6.1 | 0.00 | 0.00 | 0.00 | 21 | 1018.2 |
| 20260906200051 | 78 | 181 | 1.7 | 5.2 | 0.00 | 0.00 | 0.00 | 22 | 1018.2 |
| 20260906195546 | 77 | 163 | 0.9 | 1.7 | 0.00 | 0.00 | 0.00 | 23 | 1018.6 |
| 20260906195043 | 77 | 208 | 1.7 | 4.3 | 0.00 | 0.00 | 0.00 | 23 | 1018.6 |
| 20260906194538 | 77 | 212 | 4.3 | 6.1 | 0.00 | 0.00 | 0.00 | 22 | 1018.6 |
| 20260906194034 | 77 | 192 | 0.9 | 5.2 | 0.00 | 0.00 | 0.00 | 22 | 1018.6 |
| 20260906193533 | 77 | 158 | 0.9 | 6.1 | 0.00 | 0.00 | 0.00 | 21 | 1018.6 |
| 20260906193029 | 77 | 156 | 2.6 | 4.3 | 0.00 | 0.00 | 0.00 | 21 | 1018.7 |
| 20260906192524 | 77 | 176 | 1.7 | 2.6 | 0.00 | 0.00 | 0.00 | 23 | 1018.8 |
| 20260906192023 | 77 | 175 | 2.6 | 5.2 | 0.00 | 0.00 | 0.00 | 23 | 1018.9 |
| 20260906191519 | 77 | 180 | 1.7 | 4.3 | 0.00 | 0.00 | 0.00 | 22 | 1018.9 |
| 20260906191018 | 77 | 168 | 0.9 | 2.6 | 0.00 | 0.00 | 0.00 | 25 | 1019.3 |
| 20260906190517 | 77 | 206 | 1.7 | 2.6 | 0.00 | 0.00 | 0.00 | 25 | 1019.2 |
| 20260906190012 | 77 | 175 | 1.7 | 6.1 | 0.00 | 0.00 | 0.00 | 22 | 1019.3 |
| 20260906185511 | 77 | 180 | 3.5 | 5.2 | 0.00 | 0.00 | 0.00 | 22 | 1019.5 |
| 20260906185010 | 77 | 182 | 2.6 | 7.0 | 0.00 | 0.00 | 0.00 | 20 | 1019.9 |
| 20260906184506 | 77 | 165 | 2.6 | 6.1 | 0.00 | 0.00 | 0.00 | 22 | 1019.8 |
| 20260906184001 | 77 | 133 | 4.3 | 6.1 | 0.00 | 0.00 | 0.00 | 20 | 1019.8 |
| 20260906183457 | 77 | 185 | 3.5 | 5.2 | 0.00 | 0.00 | 0.00 | 19 | 1020.0 |
| 20260906182952 | 77 | 187 | 4.3 | 7.0 | 0.00 | 0.00 | 0.00 | 21 | 1019.8 |
| 20260906182447 | 77 | 159 | 4.3 | 6.1 | 0.00 | 0.00 | 0.00 | 22 | 1019.9 |
| 20260906181943 | 76 | 170 | 2.6 | 5.2 | 0.00 | 0.00 | 0.00 | 25 | 1020.1 |
| 20260906181439 | 76 | 191 | 2.6 | 6.1 | 0.00 | 0.00 | 0.00 | 22 | 1020.1 |
| 20260906180934 | 76 | 158 | 3.5 | 2.6 | 0.00 | 0.00 | 0.00 | 25 | 1020.1 |
| 20260906180429 | 77 | 238 | 2.6 | 2.6 | 0.00 | 0.00 | 0.00 | 22 | 1020.1 |
| 20260906175927 | 77 | 212 | 1.7 | 4.3 | 0.00 | 0.00 | 0.00 | 23 | 1019.9 |
| 20260906175422 | 76 | 168 | 1.7 | 1.7 | 0.00 | 0.00 | 0.00 | 24 | 1020.5 |
| 20260906174920 | 76 | 200 | 2.6 | 7.0 | 0.00 | 0.00 | 0.00 | 23 | 1020.5 |
| 20260906174420 | 76 | 149 | 3.5 | 5.2 | 0.00 | 0.00 | 0.00 | 23 | 1020.4 |
| 20260906173915 | 76 | 217 | 2.6 | 5.2 | 0.00 | 0.00 | 0.00 | 25 | 1020.5 |
| 20260906173410 | 75 | 174 | 3.5 | 5.2 | 0.00 | 0.00 | 0.00 | 23 | 1020.5 |
| 20260906172909 | 75 | 129 | 1.7 | 2.6 | 0.00 | 0.00 | 0.00 | 30 | 1021.0 |
| 20260906172406 | 75 | 53 | 1.7 | 1.7 | 0.00 | 0.00 | 0.00 | 28 | 1020.7 |
| 20260906171901 | 74 | 214 | 0.0 | 1.7 | 0.00 | 0.00 | 0.00 | 29 | 1021.0 |
| 20260906171355 | 74 | 175 | 0.9 | 1.7 | 0.00 | 0.00 | 0.00 | 33 | 1020.9 |
| 20260906170851 | 73 | 103 | 0.9 | 0.9 | 0.00 | 0.00 | 0.00 | 32 | 1020.9 |
| 20260906170348 | 71 | 103 | 0.0 | 0.9 | 0.00 | 0.00 | 0.00 | 34 | 1021.2 |
| 20260906165844 | 69 | 196 | 0.0 | 0.9 | 0.00 | 0.00 | 0.00 | 34 | 1021.6 |
| 20260906165342 | 69 | 101 | 0.0 | 1.7 | 0.00 | 0.00 | 0.00 | 35 | 1021.3 |
| 20260906164838 | 69 | 177 | 0.9 | 1.7 | 0.00 | 0.00 | 0.00 | 35 | 1021.6 |
| 20260906164337 | 68 | 23 | 1.7 | 1.7 | 0.00 | 0.00 | 0.00 | 35 | 1021.6 |
| 20260906163833 | 66 | 64 | 0.9 | 1.7 | 0.00 | 0.00 | 0.00 | 37 | 1021.3 |
| 20260906163329 | 66 | 53 | 0.0 | 1.7 | 0.00 | 0.00 | 0.00 | 38 | 1021.3 |
| 20260906162826 | 66 | 284 | 0.9 | 1.7 | 0.00 | 0.00 | 0.00 | 40 | 1021.5 |
| 20260906162325 | 65 | 80 | 0.0 | 1.7 | 0.00 | 0.00 | 0.00 | 45 | 1021.5 |
| 20260906161821 | 64 | 80 | 0.9 | 1.7 | 0.00 | 0.00 | 0.00 | 42 | 1021.5 |
| 20260906161320 | 64 | 294 | 0.9 | 1.7 | 0.00 | 0.00 | 0.00 | 39 | 1021.3 |
| 20260906160819 | 63 | 69 | 1.7 | 1.7 | 0.00 | 0.00 | 0.00 | 38 | 1021.8 |
| 20260906160313 | 62 | 219 | 0.9 | 1.7 | 0.00 | 0.00 | 0.00 | 40 | 1021.7 |
| 20260906155811 | 62 | 220 | 0.9 | 1.7 | 0.00 | 0.00 | 0.00 | 39 | 1021.6 |
| 20260906155307 | 61 | 220 | 0.9 | 1.7 | 0.00 | 0.00 | 0.00 | 37 | 1021.6 |
| 20260906154802 | 60 | 220 | 0.0 | 0.9 | 0.00 | 0.00 | 0.00 | 40 | 1021.6 |
| 20260906154256 | 60 | 219 | 0.0 | 1.7 | 0.00 | 0.00 | 0.00 | 40 | 1021.8 |
| 20260906153754 | 59 | 219 | 0.0 | 0.9 | 0.00 | 0.00 | 0.00 | 40 | 1021.8 |
| 20260906153243 | 58 | 219 | 1.7 | 1.7 | 0.00 | 0.00 | 0.00 | 41 | 1021.6 |
| 20260906152738 | 57 | 198 | 0.0 | 0.9 | 0.00 | 0.00 | 0.00 | 41 | 1021.8 |
| 20260906152233 | 56 | 198 | 0.0 | 0.0 | 0.00 | 0.00 | 0.00 | 44 | 1021.9 |
| 20260906151732 | 55 | 144 | 0.0 | 0.0 | 0.00 | 0.00 | 0.00 | 46 | 1021.9 |
| 20260906151228 | 54 | 150 | 0.0 | 0.0 | 0.00 | 0.00 | 0.00 | 49 | 1021.9 |
| 20260906150723 | 53 | 150 | 0.9 | 0.9 | 0.00 | 0.00 | 0.00 | 48 | 1022.2 |
| 20260906150219 | 52 | 150 | 0.0 | 0.9 | 0.00 | 0.00 | 0.00 | 50 | 1022.2 |
| 20260906145718 | 51 | 150 | 0.0 | 1.7 | 0.00 | 0.00 | 0.00 | 52 | 1022.1 |
| 20260906145217 | 51 | 150 | 0.0 | 0.9 | 0.00 | 0.00 | 0.00 | 56 | 1021.9 |
| 20260906144712 | 50 | 150 | 0.9 | 0.9 | 0.00 | 0.00 | 0.00 | 53 | 1022.2 |
| 20260906144207 | 49 | 150 | 0.0 | 0.0 | 0.00 | 0.00 | 0.00 | 54 | 1021.9 |
| 20260906143706 | 48 | 150 | 0.0 | 0.0 | 0.00 | 0.00 | 0.00 | 56 | 1022.1 |
| 20260906143204 | 48 | 150 | 0.0 | 0.0 | 0.00 | 0.00 | 0.00 | 58 | 1022.3 |
| 20260906142703 | 47 | 149 | 0.9 | 0.9 | 0.00 | 0.00 | 0.00 | 58 | 1022.3 |
| 20260906142159 | 46 | 149 | 0.0 | 0.0 | 0.00 | 0.00 | 0.00 | 63 | 1021.9 |
| 20260906141657 | 45 | 149 | 0.0 | 0.0 | 0.00 | 0.00 | 0.00 | 68 | 1022.1 |
| 20260906141152 | 43 | 149 | 0.0 | 0.0 | 0.00 | 0.00 | 0.00 | 71 | 1021.9 |
| 20260906140652 | 42 | 150 | 0.0 | 0.0 | 0.00 | 0.00 | 0.00 | 72 | 1022.2 |
| 20260906140147 | 42 | 150 | 0.0 | 0.0 | 0.00 | 0.00 | 0.00 | 73 | 1021.8 |
| 20260906135644 | 42 | 150 | 0.0 | 0.0 | 0.00 | 0.00 | 0.00 | 72 | 1022.2 |
| 20260906135140 | 42 | 150 | 0.0 | 0.0 | 0.00 | 0.00 | 0.00 | 72 | 1022.1 |
| 20260906134635 | 42 | 150 | 0.0 | 0.9 | 0.00 | 0.00 | 0.00 | 73 | 1021.9 |
| 20260906134130 | 42 | 150 | 0.0 | 0.0 | 0.00 | 0.00 | 0.00 | 72 | 1021.9 |
| 20260906133626 | 42 | 150 | 0.0 | 0.0 | 0.00 | 0.00 | 0.00 | 71 | 1022.1 |
| 20260906133120 | 42 | 150 | 0.0 | 0.0 | 0.00 | 0.00 | 0.00 | 73 | 1021.8 |
| 20260906132615 | 42 | 150 | 0.9 | 0.9 | 0.00 | 0.00 | 0.00 | 73 | 1021.8 |
| 20260906132111 | 42 | 150 | 0.0 | 0.0 | 0.00 | 0.00 | 0.00 | 73 | 1021.9 |
| 20260906131607 | 42 | 150 | 0.0 | 0.0 | 0.00 | 0.00 | 0.00 | 73 | 1021.9 |
| 20260906131102 | 42 | 150 | 0.0 | 0.0 | 0.00 | 0.00 | 0.00 | 72 | 1021.7 |
| 20260906130556 | 42 | 150 | 0.0 | 0.0 | 0.00 | 0.00 | 0.00 | 72 | 1021.8 |
| 20260906130051 | 42 | 150 | 0.0 | 0.0 | 0.00 | 0.00 | 0.00 | 72 | 1021.7 |
| 20260906125548 | 42 | 150 | 0.0 | 0.0 | 0.00 | 0.00 | 0.00 | 71 | 1021.6 |
| 20260906125043 | 42 | 150 | 0.0 | 0.9 | 0.00 | 0.00 | 0.00 | 71 | 1021.5 |
| 20260906124538 | 43 | 150 | 0.0 | 0.0 | 0.00 | 0.00 | 0.00 | 70 | 1021.7 |
| 20260906124033 | 43 | 150 | 0.0 | 0.0 | 0.00 | 0.00 | 0.00 | 70 | 1021.3 |
| 20260906123532 | 42 | 150 | 0.0 | 0.0 | 0.00 | 0.00 | 0.00 | 68 | 1021.5 |
| 20260906123027 | 43 | 150 | 0.0 | 0.0 | 0.00 | 0.00 | 0.00 | 70 | 1021.2 |
| 20260906122521 | 43 | 150 | 0.0 | 0.0 | 0.00 | 0.00 | 0.00 | 69 | 1021.3 |
| 20260906122018 | 43 | 150 | 0.0 | 0.0 | 0.00 | 0.00 | 0.00 | 69 | 1021.2 |
| 20260906121514 | 43 | 150 | 0.0 | 0.0 | 0.00 | 0.00 | 0.00 | 70 | 1021.1 |
| 20260906121009 | 43 | 150 | 0.0 | 0.0 | 0.00 | 0.00 | 0.00 | 70 | 1021.3 |
| 20260906120504 | 43 | 150 | 0.0 | 0.0 | 0.00 | 0.00 | 0.00 | 71 | 1021.3 |
| 20260906120002 | 43 | 150 | 0.0 | 0.0 | 0.00 | 0.00 | 0.00 | 68 | 1021.1 |
| 20260906115456 | 43 | 150 | 0.0 | 0.0 | 0.00 | 0.00 | 0.00 | 69 | 1021.2 |
| 20260906114956 | 43 | 150 | 0.0 | 0.0 | 0.00 | 0.00 | 0.00 | 70 | 1021.2 |
| 20260906114450 | 44 | 150 | 0.0 | 0.9 | 0.00 | 0.00 | 0.00 | 71 | 1021.1 |
| 20260906113947 | 44 | 150 | 0.0 | 0.0 | 0.00 | 0.00 | 0.00 | 70 | 1021.5 |
| 20260906113445 | 44 | 150 | 0.9 | 0.9 | 0.00 | 0.00 | 0.00 | 69 | 1021.3 |
| 20260906112941 | 44 | 150 | 1.7 | 1.7 | 0.00 | 0.00 | 0.00 | 69 | 1021.5 |
| 20260906112436 | 44 | 150 | 0.9 | 0.9 | 0.00 | 0.00 | 0.00 | 69 | 1021.5 |
| 20260906111932 | 44 | 150 | 0.0 | 0.0 | 0.00 | 0.00 | 0.00 | 69 | 1021.2 |
| 20260906111431 | 44 | 150 | 0.0 | 0.0 | 0.00 | 0.00 | 0.00 | 69 | 1021.2 |
| 20260906110926 | 44 | 150 | 0.0 | 0.0 | 0.00 | 0.00 | 0.00 | 68 | 1021.2 |
| 20260906110422 | 44 | 150 | 0.0 | 0.0 | 0.00 | 0.00 | 0.00 | 68 | 1021.5 |
| 20260906105920 | 44 | 150 | 0.0 | 0.0 | 0.00 | 0.00 | 0.00 | 68 | 1021.0 |
| 20260906105416 | 44 | 150 | 0.0 | 0.0 | 0.00 | 0.00 | 0.00 | 67 | 1021.1 |
| 20260906104912 | 45 | 150 | 0.0 | 0.0 | 0.00 | 0.00 | 0.00 | 67 | 1021.2 |
| 20260906104410 | 45 | 150 | 0.0 | 0.0 | 0.00 | 0.00 | 0.00 | 65 | 1021.2 |
| 20260906103910 | 46 | 150 | 0.0 | 0.0 | 0.00 | 0.00 | 0.00 | 64 | 1021.3 |
| 20260906103408 | 46 | 150 | 0.0 | 0.9 | 0.00 | 0.00 | 0.00 | 62 | 1021.1 |
| 20260906102904 | 48 | 150 | 0.0 | 0.0 | 0.00 | 0.00 | 0.00 | 60 | 1021.1 |
| 20260906102403 | 49 | 150 | 0.0 | 0.0 | 0.00 | 0.00 | 0.00 | 57 | 1021.3 |
| 20260906101858 | 49 | 150 | 0.0 | 0.9 | 0.00 | 0.00 | 0.00 | 56 | 1021.0 |
| 20260906101353 | 50 | 150 | 0.0 | 0.0 | 0.00 | 0.00 | 0.00 | 55 | 1021.1 |
| 20260906100849 | 50 | 150 | 0.0 | 0.9 | 0.00 | 0.00 | 0.00 | 53 | 1021.0 |
| 20260906100348 | 50 | 150 | 0.9 | 1.7 | 0.00 | 0.00 | 0.00 | 53 | 1020.9 |
| 20260906095843 | 50 | 150 | 0.9 | 0.9 | 0.00 | 0.00 | 0.00 | 56 | 1021.0 |
| 20260906095338 | 49 | 150 | 0.9 | 0.9 | 0.00 | 0.00 | 0.00 | 56 | 1021.2 |
| 20260906094832 | 49 | 150 | 0.9 | 0.9 | 0.00 | 0.00 | 0.00 | 56 | 1021.2 |
| 20260906094327 | 49 | 150 | 0.9 | 0.9 | 0.00 | 0.00 | 0.00 | 60 | 1021.0 |
| 20260906093824 | 49 | 150 | 0.0 | 0.0 | 0.00 | 0.00 | 0.00 | 58 | 1020.6 |
| 20260906093319 | 50 | 150 | 0.9 | 0.9 | 0.00 | 0.00 | 0.00 | 56 | 1020.7 |
| 20260906092814 | 50 | 150 | 0.0 | 0.9 | 0.00 | 0.00 | 0.00 | 55 | 1020.7 |
| 20260906092308 | 50 | 150 | 0.0 | 0.0 | 0.00 | 0.00 | 0.00 | 55 | 1020.7 |
| 20260906091804 | 49 | 150 | 0.9 | 0.9 | 0.00 | 0.00 | 0.00 | 56 | 1020.7 |
| 20260906091300 | 50 | 150 | 0.9 | 0.9 | 0.00 | 0.00 | 0.00 | 57 | 1020.9 |
| 20260906090756 | 50 | 150 | 0.0 | 0.9 | 0.00 | 0.00 | 0.00 | 58 | 1021.0 |
| 20260906090255 | 50 | 150 | 0.0 | 0.0 | 0.00 | 0.00 | 0.00 | 56 | 1021.0 |
| 20260906085754 | 50 | 150 | 0.0 | 0.9 | 0.00 | 0.00 | 0.00 | 54 | 1020.7 |
| 20260906085253 | 50 | 150 | 0.9 | 0.9 | 0.00 | 0.00 | 0.00 | 53 | 1020.9 |
| 20260906084743 | 50 | 150 | 0.9 | 0.9 | 0.00 | 0.00 | 0.00 | 56 | 1021.0 |
| 20260906084242 | 50 | 150 | 0.0 | 0.9 | 0.00 | 0.00 | 0.00 | 54 | 1020.9 |
| 20260906083737 | 51 | 150 | 0.0 | 0.0 | 0.00 | 0.00 | 0.00 | 52 | 1021.0 |
| 20260906083233 | 51 | 150 | 0.0 | 0.9 | 0.00 | 0.00 | 0.00 | 51 | 1021.0 |
| 20260906082728 | 51 | 149 | 0.9 | 0.9 | 0.00 | 0.00 | 0.00 | 53 | 1020.9 |
| 20260906082223 | 50 | 150 | 0.9 | 0.9 | 0.00 | 0.00 | 0.00 | 54 | 1021.0 |
| 20260906081719 | 50 | 150 | 0.9 | 0.9 | 0.00 | 0.00 | 0.00 | 55 | 1021.1 |
| 20260906081213 | 50 | 149 | 0.9 | 0.9 | 0.00 | 0.00 | 0.00 | 58 | 1020.7 |
| 20260906080710 | 50 | 150 | 0.0 | 0.9 | 0.00 | 0.00 | 0.00 | 57 | 1020.9 |
| 20260906080206 | 50 | 149 | 0.0 | 0.9 | 0.00 | 0.00 | 0.00 | 57 | 1020.7 |
| 20260906075700 | 50 | 149 | 0.0 | 0.0 | 0.00 | 0.00 | 0.00 | 56 | 1020.9 |
| 20260906075154 | 50 | 149 | 0.0 | 0.0 | 0.00 | 0.00 | 0.00 | 52 | 1020.9 |
| 20260906074649 | 50 | 149 | 0.0 | 0.0 | 0.00 | 0.00 | 0.00 | 54 | 1021.2 |
| 20260906074143 | 50 | 149 | 0.0 | 0.0 | 0.00 | 0.00 | 0.00 | 54 | 1021.0 |
| 20260906073638 | 51 | 149 | 0.0 | 0.0 | 0.00 | 0.00 | 0.00 | 55 | 1021.1 |
| 20260906073134 | 50 | 149 | 0.0 | 0.9 | 0.00 | 0.00 | 0.00 | 56 | 1021.1 |
| 20260906072629 | 51 | 149 | 0.0 | 0.0 | 0.00 | 0.00 | 0.00 | 57 | 1020.7 |
| 20260906072124 | 51 | 149 | 0.9 | 0.9 | 0.00 | 0.00 | 0.00 | 54 | 1020.9 |
| 20260906071620 | 51 | 149 | 0.0 | 0.0 | 0.00 | 0.00 | 0.00 | 55 | 1020.9 |
| 20260906071115 | 51 | 149 | 0.0 | 0.0 | 0.00 | 0.00 | 0.00 | 52 | 1020.9 |
| 20260906070612 | 51 | 149 | 0.0 | 0.0 | 0.00 | 0.00 | 0.00 | 53 | 1020.9 |
| 20260906070107 | 51 | 149 | 0.0 | 0.9 | 0.00 | 0.00 | 0.00 | 52 | 1020.9 |
| 20260906065607 | 52 | 150 | 0.0 | 0.0 | 0.00 | 0.00 | 0.00 | 50 | 1020.6 |
| 20260906065102 | 52 | 149 | 0.0 | 0.9 | 0.00 | 0.00 | 0.00 | 48 | 1021.0 |
| 20260906064558 | 52 | 149 | 0.0 | 0.9 | 0.00 | 0.00 | 0.00 | 49 | 1020.9 |
| 20260906064052 | 52 | 149 | 0.0 | 0.9 | 0.00 | 0.00 | 0.00 | 50 | 1021.0 |
| 20260906063548 | 52 | 150 | 0.9 | 0.9 | 0.00 | 0.00 | 0.00 | 50 | 1020.9 |
| 20260906063044 | 52 | 150 | 0.0 | 0.9 | 0.00 | 0.00 | 0.00 | 52 | 1021.1 |
| 20260906062538 | 51 | 112 | 0.9 | 0.9 | 0.00 | 0.00 | 0.00 | 53 | 1021.0 |
| 20260906062033 | 51 | 112 | 0.0 | 0.9 | 0.00 | 0.00 | 0.00 | 55 | 1020.9 |
| 20260906061529 | 51 | 112 | 0.0 | 0.0 | 0.00 | 0.00 | 0.00 | 55 | 1020.9 |
| 20260906061028 | 52 | 112 | 0.0 | 0.0 | 0.00 | 0.00 | 0.00 | 54 | 1021.0 |
| 20260906060525 | 51 | 112 | 0.0 | 0.0 | 0.00 | 0.00 | 0.00 | 54 | 1021.0 |
| 20260906060022 | 51 | 112 | 0.0 | 0.0 | 0.00 | 0.00 | 0.00 | 54 | 1021.1 |
| 20260906055517 | 52 | 112 | 0.0 | 0.0 | 0.00 | 0.00 | 0.00 | 50 | 1021.0 |
| 20260906055012 | 52 | 112 | 0.0 | 0.0 | 0.00 | 0.00 | 0.00 | 52 | 1020.7 |
| 20260906054507 | 53 | 112 | 0.0 | 0.0 | 0.00 | 0.00 | 0.00 | 50 | 1021.0 |
| 20260906054003 | 54 | 112 | 0.0 | 0.0 | 0.00 | 0.00 | 0.00 | 50 | 1021.0 |
| 20260906053459 | 55 | 112 | 0.0 | 0.9 | 0.00 | 0.00 | 0.00 | 49 | 1021.0 |
| 20260906052954 | 55 | 112 | 0.0 | 0.0 | 0.00 | 0.00 | 0.00 | 47 | 1021.1 |
| 20260906052450 | 56 | 113 | 0.0 | 0.0 | 0.00 | 0.00 | 0.00 | 42 | 1021.2 |
| 20260906051947 | 57 | 113 | 0.0 | 0.0 | 0.00 | 0.00 | 0.00 | 41 | 1021.2 |
| 20260906051442 | 57 | 113 | 0.0 | 0.0 | 0.00 | 0.00 | 0.00 | 42 | 1021.0 |
| 20260906050937 | 56 | 113 | 0.9 | 0.9 | 0.00 | 0.00 | 0.00 | 42 | 1021.1 |
| 20260906050437 | 56 | 113 | 0.0 | 0.0 | 0.00 | 0.00 | 0.00 | 41 | 1021.1 |
| 20260906045936 | 57 | 113 | 0.0 | 0.0 | 0.00 | 0.00 | 0.00 | 41 | 1021.1 |
| 20260906045435 | 57 | 113 | 0.0 | 0.0 | 0.00 | 0.00 | 0.00 | 41 | 1021.3 |
| 20260906044931 | 59 | 112 | 0.0 | 0.9 | 0.00 | 0.00 | 0.00 | 39 | 1021.1 |
| 20260906044426 | 59 | 112 | 0.9 | 0.9 | 0.00 | 0.00 | 0.00 | 36 | 1021.3 |
| 20260906043921 | 59 | 115 | 0.9 | 1.7 | 0.00 | 0.00 | 0.00 | 36 | 1021.2 |
| 20260906043417 | 60 | 109 | 0.9 | 0.9 | 0.00 | 0.00 | 0.00 | 36 | 1021.1 |
| 20260906042913 | 60 | 83 | 0.9 | 1.7 | 0.00 | 0.00 | 0.00 | 35 | 1021.2 |
| 20260906042411 | 60 | 153 | 0.9 | 1.7 | 0.00 | 0.00 | 0.00 | 35 | 1021.0 |
| 20260906041907 | 60 | 148 | 0.9 | 2.6 | 0.00 | 0.00 | 0.00 | 35 | 1021.3 |
| 20260906041402 | 60 | 124 | 0.0 | 1.7 | 0.00 | 0.00 | 0.00 | 35 | 1021.2 |
| 20260906040857 | 60 | 122 | 0.9 | 0.9 | 0.00 | 0.00 | 0.00 | 35 | 1021.3 |
| 20260906040352 | 60 | 115 | 0.9 | 4.3 | 0.00 | 0.00 | 0.00 | 35 | 1021.1 |
| 20260906035848 | 61 | 214 | 1.7 | 1.7 | 0.00 | 0.00 | 0.00 | 35 | 1021.0 |
| 20260906035343 | 61 | 148 | 1.7 | 2.6 | 0.00 | 0.00 | 0.00 | 35 | 1021.1 |
| 20260906034838 | 61 | 147 | 0.9 | 2.6 | 0.00 | 0.00 | 0.00 | 34 | 1021.1 |
| 20260906034333 | 61 | 159 | 1.7 | 2.6 | 0.00 | 0.00 | 0.00 | 35 | 1021.1 |
| 20260906033829 | 62 | 174 | 0.9 | 0.9 | 0.00 | 0.00 | 0.00 | 34 | 1020.9 |
| 20260906033328 | 62 | 174 | 1.7 | 2.6 | 0.00 | 0.00 | 0.00 | 33 | 1021.0 |
| 20260906032825 | 63 | 166 | 1.7 | 2.6 | 0.00 | 0.00 | 0.00 | 32 | 1021.0 |
| 20260906032320 | 63 | 150 | 0.9 | 2.6 | 0.00 | 0.00 | 0.00 | 34 | 1021.0 |
| 20260906031815 | 62 | 158 | 0.9 | 2.6 | 0.00 | 0.00 | 0.00 | 33 | 1021.0 |
| 20260906031311 | 63 | 137 | 0.0 | 1.7 | 0.00 | 0.00 | 0.00 | 32 | 1020.9 |
| 20260906030810 | 63 | 77 | 0.0 | 1.7 | 0.00 | 0.00 | 0.00 | 31 | 1020.7 |
| 20260906030306 | 64 | 136 | 0.9 | 2.6 | 0.00 | 0.00 | 0.00 | 32 | 1021.0 |
| 20260906025805 | 64 | 119 | 2.6 | 2.6 | 0.00 | 0.00 | 0.00 | 32 | 1020.9 |
| 20260906025259 | 63 | 120 | 1.7 | 4.3 | 0.00 | 0.00 | 0.00 | 31 | 1020.5 |
| 20260906024758 | 64 | 142 | 2.6 | 2.6 | 0.00 | 0.00 | 0.00 | 32 | 1020.6 |
| 20260906024257 | 64 | 151 | 1.7 | 1.7 | 0.00 | 0.00 | 0.00 | 31 | 1020.3 |
| 20260906023753 | 64 | 151 | 0.9 | 1.7 | 0.00 | 0.00 | 0.00 | 31 | 1020.4 |
| 20260906023248 | 64 | 151 | 0.9 | 1.7 | 0.00 | 0.00 | 0.00 | 31 | 1020.4 |
| 20260906022744 | 64 | 150 | 0.0 | 0.9 | 0.00 | 0.00 | 0.00 | 31 | 1020.3 |
| 20260906022239 | 64 | 149 | 0.9 | 1.7 | 0.00 | 0.00 | 0.00 | 31 | 1020.0 |
| 20260906021735 | 64 | 149 | 0.9 | 1.7 | 0.00 | 0.00 | 0.00 | 32 | 1020.1 |
| 20260906021234 | 65 | 149 | 0.0 | 0.9 | 0.00 | 0.00 | 0.00 | 33 | 1020.0 |
| 20260906020729 | 66 | 149 | 0.9 | 0.9 | 0.00 | 0.00 | 0.00 | 32 | 1020.0 |
| 20260906020223 | 67 | 149 | 0.9 | 0.9 | 0.00 | 0.00 | 0.00 | 31 | 1020.0 |
| 20260906015718 | 68 | 149 | 0.0 | 0.0 | 0.00 | 0.00 | 0.00 | 30 | 1019.9 |
| 20260906015216 | 68 | 149 | 0.0 | 0.9 | 0.00 | 0.00 | 0.00 | 28 | 1020.1 |
| 20260906014711 | 69 | 149 | 0.9 | 0.9 | 0.00 | 0.00 | 0.00 | 29 | 1020.0 |
| 20260906014207 | 69 | 150 | 0.9 | 0.9 | 0.00 | 0.00 | 0.00 | 27 | 1020.0 |
| 20260906013703 | 70 | 149 | 0.0 | 0.9 | 0.00 | 0.00 | 0.00 | 29 | 1019.4 |
| 20260906013203 | 71 | 149 | 0.0 | 0.9 | 0.00 | 0.00 | 0.00 | 26 | 1019.7 |
| 20260906012658 | 72 | 149 | 0.0 | 0.9 | 0.00 | 0.00 | 0.00 | 26 | 1019.5 |
| 20260906012158 | 73 | 149 | 0.9 | 0.9 | 0.00 | 0.00 | 0.00 | 25 | 1019.4 |
| 20260906011654 | 74 | 150 | 0.0 | 0.9 | 0.00 | 0.00 | 0.00 | 23 | 1019.5 |
| 20260906011148 | 75 | 150 | 0.9 | 0.9 | 0.00 | 0.00 | 0.00 | 22 | 1019.7 |
| 20260906010643 | 75 | 150 | 0.9 | 2.6 | 0.00 | 0.00 | 0.00 | 20 | 1019.5 |
| 20260906010140 | 76 | 117 | 0.9 | 4.3 | 0.00 | 0.00 | 0.00 | 21 | 1019.7 |
| 20260906005639 | 76 | 157 | 1.7 | 1.7 | 0.00 | 0.00 | 0.00 | 19 | 1019.7 |
| 20260906005138 | 77 | 163 | 0.0 | 0.9 | 0.00 | 0.00 | 0.00 | 19 | 1019.4 |
| 20260906004638 | 78 | 163 | 0.9 | 1.7 | 0.00 | 0.00 | 0.00 | 17 | 1019.4 |
| 20260906004133 | 78 | 170 | 1.7 | 4.3 | 0.00 | 0.00 | 0.00 | 16 | 1019.4 |
| 20260906003628 | 78 | 151 | 0.9 | 2.6 | 0.00 | 0.00 | 0.00 | 17 | 1019.3 |
| 20260906003124 | 78 | 159 | 2.6 | 5.2 | 0.00 | 0.00 | 0.00 | 17 | 1019.3 |
| 20260906002618 | 79 | 169 | 1.7 | 5.2 | 0.00 | 0.00 | 0.00 | 17 | 1019.5 |
| 20260906002113 | 79 | 198 | 2.6 | 6.1 | 0.00 | 0.00 | 0.00 | 16 | 1019.4 |
| 20260906001603 | 79 | 217 | 2.6 | 5.2 | 0.00 | 0.00 | 0.00 | 16 | 1019.3 |
| 20260906001103 | 79 | 179 | 3.5 | 5.2 | 0.00 | 0.00 | 0.00 | 16 | 1019.4 |
| 20260906000559 | 80 | 174 | 3.5 | 5.2 | 0.00 | 0.00 | 0.00 | 16 | 1019.7 |
| 20260906000054 | 80 | 213 | 2.6 | 2.6 | 0.00 | 0.00 | 0.00 | 16 | 1019.7 |
| 20260905235553 | 80 | 208 | 2.6 | 5.2 | 0.00 | 0.00 | 0.00 | 16 | 1019.4 |
| 20260905235048 | 80 | 193 | 2.6 | 2.6 | 0.00 | 0.00 | 0.00 | 17 | 1019.7 |
| 20260905234543 | 80 | 199 | 3.5 | 5.2 | 0.00 | 0.00 | 0.00 | 17 | 1019.4 |
| 20260905234038 | 80 | 172 | 1.7 | 5.2 | 0.00 | 0.00 | 0.00 | 18 | 1019.4 |
| 20260905233533 | 80 | 203 | 1.7 | 4.3 | 0.00 | 0.00 | 0.00 | 15 | 1019.5 |
| 20260905233033 | 80 | 162 | 3.5 | 5.2 | 0.00 | 0.00 | 0.00 | 17 | 1019.4 |
| 20260905232528 | 81 | 181 | 1.7 | 5.2 | 0.00 | 0.00 | 0.00 | 16 | 1019.5 |
| 20260905232024 | 81 | 174 | 2.6 | 5.2 | 0.00 | 0.00 | 0.00 | 16 | 1019.4 |
| 20260905231519 | 80 | 217 | 0.9 | 4.3 | 0.00 | 0.00 | 0.00 | 16 | 1019.4 |
| 20260905231015 | 80 | 185 | 3.5 | 5.2 | 0.00 | 0.00 | 0.00 | 18 | 1019.5 |
| 20260905230514 | 80 | 185 | 2.6 | 4.3 | 0.00 | 0.00 | 0.00 | 17 | 1019.5 |
| 20260905230013 | 80 | 202 | 1.7 | 2.6 | 0.00 | 0.00 | 0.00 | 15 | 1019.4 |